Location: Atherton
(17.2661°S, 145.4859°E)
Time: 01:24:30
(UTC+10:00)

Tiros 1 - All Passes

Search period start: 24 June 2025 00:00
Search period end: 04 July 2025 00:00
Orbit: 620 x 651 km, 48.4° (Epoch: 23 June)

Date Brightness Start Highest point End Pass type
(mag) Time Alt. Az. Time Alt. Az. Time Alt. Az.
24 Jun - 00:03:06 10° SW 00:07:51 72° SE 00:12:35 10° NE night (unlit)
24 Jun - 14:03:32 10° NW 14:08:05 82° NE 14:12:42 10° SE daylight
24 Jun - 15:49:03 10° SW 15:50:21 11° SW 15:51:39 10° SSW daylight
24 Jun - 22:44:25 10° S 22:48:02 21° SE 22:51:38 10° E night (unlit)
25 Jun - 00:25:33 10° WSW 00:29:59 39° NW 00:34:23 10° NNE night (unlit)
25 Jun - 12:45:15 10° N 12:48:37 20° NE 12:52:01 10° E daylight
25 Jun - 14:26:09 10° WNW 14:30:20 34° SW 14:34:32 10° SSE daylight
25 Jun - 23:05:44 10° SSW 23:10:23 54° SE 23:15:01 10° NE night (unlit)
26 Jun - 00:49:35 10° W 00:52:00 14° NW 00:54:25 10° NNW night (unlit)
26 Jun - 13:06:11 10° NNW 13:10:40 60° NE 13:15:13 10° SE daylight
26 Jun - 14:50:21 10° WSW 14:52:47 14° SW 14:55:14 10° S daylight
26 Jun - 21:47:26 10° S 21:50:29 17° SE 21:53:31 10° E night (unlit)
26 Jun - 23:27:56 10° SW 23:32:33 53° NW 23:37:09 10° NNE night (unlit)
27 Jun - 11:48:35 10° NNE 11:51:14 15° NE 11:53:52 10° E daylight
27 Jun - 13:28:29 10° WNW 13:32:51 45° SW 13:37:16 10° SSE daylight
27 Jun - 22:08:25 10° SSW 22:12:54 41° SE 22:17:21 10° ENE night (unlit)
27 Jun - 23:51:19 10° W 23:54:36 19° NW 23:57:52 10° N night (unlit)
28 Jun - 12:08:56 10° NNW 12:13:15 44° NE 12:17:37 10° ESE daylight
28 Jun - 13:52:06 10° W 13:55:14 18° SW 13:58:22 10° S daylight
28 Jun - 20:50:41 10° S 20:52:55 13° SE 20:55:08 10° ESE night (unlit)
28 Jun - 22:30:23 10° SW 22:35:07 71° NW 22:39:49 10° NE night (unlit)
29 Jun - 10:52:32 10° NE 10:53:50 11° NE 10:55:07 10° ENE daylight
29 Jun - 12:30:53 10° NW 12:35:23 61° SW 12:39:56 10° SSE daylight
29 Jun - 21:11:11 10° SSW 21:15:23 31° SE 21:19:36 10° ENE night (unlit)
29 Jun - 22:53:20 10° WSW 22:57:10 24° NW 23:01:00 10° N night (unlit)
30 Jun - 11:11:46 10° NNW 11:15:50 33° NE 11:19:56 10° ESE daylight
30 Jun - 12:54:05 10° W 12:57:42 23° SW 13:01:21 10° S daylight
30 Jun - 19:54:53 10° SSE 19:55:19 10° SE 19:55:44 10° SE night (unlit)
30 Jun - 21:32:54 10° SW 21:37:39 86° SE 21:42:23 10° NE night (unlit)
01 Jul - 11:33:23 10° NW 11:37:56 82° SW 11:42:32 10° SE daylight
01 Jul - 20:14:01 10° SSW 20:17:52 24° SE 20:21:44 10° E visible
01 Jul - 21:55:31 10° WSW 21:59:44 32° NW 22:03:57 10° NNE night (unlit)
02 Jul - 10:14:44 10° N 10:18:26 24° NE 10:22:08 10° ESE daylight
02 Jul - 11:56:13 10° WNW 12:00:11 29° SW 12:04:12 10° SSE daylight
02 Jul - 20:35:29 10° SW 20:40:10 65° SE 20:44:51 10° NE visible
02 Jul - 22:20:19 10° WNW 22:21:45 11° NW 22:23:11 10° NW night (unlit)
03 Jul - 10:35:57 10° NW 10:40:29 74° NE 10:45:04 10° SE daylight
03 Jul - 12:20:56 10° WSW 12:22:41 12° SW 12:24:26 10° SSW daylight
03 Jul - 19:16:57 10° S 19:20:19 19° SE 19:23:41 10° E visible
03 Jul - 20:57:50 10° WSW 21:02:18 43° NW 21:06:46 10° NNE visible
